Theta_e
288 288 288 288 287 287 287 286 285 286 286 286 286 287 288 289 289 290 292 292 293 294
287 287 287 287 287 287 286 285 285 285 285 285 285 285 287 288 288 289 290 290 291 292
287 287 287 287 286 286 285 285 284 284 284 284 284 284 286 287 287 287 288 289 289 290
286 286 286 286 286 286 285 284 284 283 283 283 283 284 284 285 285 285 286 287 288 287
286 286 285 285 285 285 284 284 284 283 283 282 282 283 283 283 284 284 284 285 286 286
286 285 285 285 285 285 284 283 283 283 282 282 282 281 282 282 283 284 284 285 285 285
286 286 285 285 285 284 284 283 283 283 282 282 282 281 281 282 283 283 284 285 285 284
286 286 286 285 284 284 283 283 283 282 282 281 281 281 281 282 283 284 284 285 284 284
284 285 285 285 284 283 283 282 282 281 281 281 280 281 282 283 283 283 283 283 284 284
283 283 283 284 283 282 282 282 281 281 281 280 281 282 283 283 283 283 283 283 283 282
281 281 282 282 282 283 283 282 281 280 280 280 280 281 282 283 283 283 283 283 282 282
280 280 280 280 282 283 282 282 281 281 280 279 279 281 282 282 282 282 282 282 282 282
280 279 278 280 281 282 282 281 280 279 280 280 279 280 282 282 281 280 280 281 281 283
278 278 278 279 280 280 280 280 279 278 278 278 279 279 281 282 280 280 279 280 280 282
Wind_Speed
9 6 5 6 4 3 3 3 4 4 5 5 6 5 5 4 5 6 5 7 6 4
9 8 7 7 6 4 5 4 4 4 4 4 4 5 5 4 5 5 5 5 6 4
11 10 9 8 8 8 6 6 5 4 3 3 3 3 3 3 4 5 4 4 6 5
13 12 10 10 9 8 7 7 6 5 4 3 2 2 2 2 4 4 5 5 5 6
13 13 12 12 11 10 9 8 7 6 5 5 4 2 1 1 1 2 3 4 4 5
15 15 15 14 12 11 11 10 9 8 7 6 5 5 4 3 2 2 2 2 3 4
15 16 16 14 14 13 12 12 11 10 8 7 6 6 5 5 4 4 4 4 4 3
14 14 14 15 15 14 14 12 12 11 10 9 8 6 7 6 5 5 5 5 5 4
14 14 16 15 16 15 15 14 13 13 12 11 8 12 13 8 6 6 6 6 6 5
15 15 16 14 15 17 17 15 15 15 13 13 11 14 14 12 8 7 6 7 7 7
14 14 13 14 16 16 15 16 15 15 14 12 10 15 15 13 9 8 8 8 8 9
13 14 14 15 15 14 14 14 14 13 14 14 12 16 16 12 9 9 10 8 9 10
10 11 12 13 12 11 12 12 10 13 13 15 12 14 15 13 7 9 8 9 10 14
9 9 9 9 10 10 11 11 11 12 11 11 11 10 16 16 9 8 8 8 8 8
Wind_Direction
186 187 182 180 169 155 142 118 108 81 64 49 34 27 25 32 27 23 24 22 20 31
191 194 189 181 179 169 155 145 133 104 88 70 55 40 34 37 29 27 23 22 17 14
193 197 196 188 190 185 169 164 159 146 130 111 81 56 43 52 34 24 26 20 15 17
193 195 197 200 197 192 181 179 178 173 169 164 142 86 62 61 32 24 22 24 16 14
196 196 200 205 200 194 194 190 189 187 192 188 178 166 140 129 46 9 15 14 10 14
201 199 204 203 200 196 197 196 195 198 201 199 196 197 202 210 233 277 304 326 337 354
203 202 203 200 199 199 199 200 202 204 204 205 203 210 212 215 229 258 275 289 301 317
204 203 202 202 201 200 202 205 204 204 207 207 211 212 212 214 229 247 263 264 277 275
204 198 201 201 201 203 205 204 204 207 207 207 210 212 209 221 229 236 256 275 278 278
202 202 202 199 201 205 207 203 206 208 207 210 210 209 209 218 239 240 242 259 273 279
203 205 200 199 205 207 205 205 206 209 208 210 212 208 212 218 231 240 248 251 258 267
198 199 197 202 204 205 206 205 208 208 205 207 209 207 210 212 222 235 246 252 253 258
191 196 199 201 203 205 208 215 208 209 208 210 211 205 210 214 227 235 242 247 245 243
180 186 189 192 199 202 203 210 210 210 204 206 210 208 217 219 229 238 242 245 247 242